[[{"header":{"parameterUnit":"m.s-1","parameterCategory":2,"la1":30.2991,"la2":30.254,"lo1":-89.0895,"lo2":-89.0444,"dy":0.0017,"dx":0.0017,"nx":28,"ny":28,"refTime":"2024-06-08T09:00:00:Z","depth":"0","parameterNumber":2,"parameterNumberName":"U-component_of_CURRENTS"},"data":[0,0,0,0,0,0,0,0,0,0,0,0,0,0,0,0,0,0,0,0,0,0,0,0,0,0,0,0,0,0,0,0,0,0,0,0,0,0,0,0,0,0,0,0,0,0,0,0,0,0,0,0,0,0,0,0,0,0,-0.2109,-0.211,0,-0.2176,-0.2176,-0.2177,-0.2156,-0.2155,-0.2153,-0.2152,-0.2118,-0.2118,-0.2118,0,0,0,0,0,0,0,0,0,0,0,0,0,-0.2004,-0.2006,-0.2109,-0.211,-0.2111,-0.2176,-0.2176,-0.2177,-0.2156,-0.2154,-0.2153,-0.2152,-0.2118,-0.2118,-0.2118,0,0,0,0,0,0,0,0,0,0,0,0,0,-0.2056,-0.2006,-0.2109,-0.211,-0.2111,-0.2175,-0.2176,-0.2177,-0.2156,-0.2154,-0.2153,-0.2151,-0.2118,-0.2118,-0.2118,-0.2157,0,0,-0.2119,-0.212,0,0,0,0,0,0,0,0,-0.2053,-0.206,-0.2109,-0.211,-0.2111,-0.2157,-0.2127,-0.2166,-0.2157,-0.2137,-0.2152,-0.215,-0.2124,-0.2124,-0.2139,-0.2156,-0.2154,-0.2119,-0.212,-0.212,-0.212,0,0,0,0,0,0,0,-0.205,-0.2057,-0.2133,-0.211,-0.2111,-0.2121,-0.2126,-0.2135,-0.2136,-0.2138,-0.2137,-0.2149,-0.2124,-0.2139,-0.2138,-0.2154,-0.2119,-0.212,-0.212,-0.212,-0.224,-0.2243,0,0,0,0,0,0,-0.2046,-0.2054,-0.2131,-0.2135,-0.2079,-0.2125,-0.213,-0.2143,-0.2139,-0.2138,-0.2151,-0.2148,-0.2139,-0.2138,-0.2136,-0.2212,-0.212,-0.212,-0.212,-0.2237,-0.2241,-0.2244,0,0,0,0,0,0,-0.2044,-0.2052,-0.2128,-0.2097,-0.2108,-0.2128,-0.2143,-0.2145,-0.2154,-0.2149,-0.2145,-0.2156,-0.2138,-0.2136,-0.2178,-0.2209,-0.212,-0.2121,-0.2234,-0.2238,-0.2242,-0.2343,0,0,0,0,0,0,-0.204,-0.2051,-0.2054,-0.2097,-0.211,-0.2181,-0.2145,-0.2148,-0.2165,-0.2162,-0.2153,-0.2149,-0.2136,-0.2178,-0.2179,-0.2208,-0.2121,-0.223,-0.2236,-0.2241,-0.2336,-0.235,-0.2363,0,0,0,0,0,-0.2036,-0.2061,-0.2054,-0.2063,-0.2115,-0.2183,-0.2192,-0.2197,-0.2167,-0.2192,-0.2199,-0.2149,-0.2213,-0.2182,-0.2181,-0.2211,-0.2227,-0.2234,-0.224,-0.233,-0.2348,-0.2362,0,0,0,0,0,0,-0.2013,-0.2063,-0.2056,-0.2091,-0.2136,-0.2181,-0.2199,-0.2201,-0.2227,-0.2214,-0.2194,-0.2194,-0.2239,-0.2222,-0.2188,-0.2266,-0.2209,-0.2216,-0.2277,-0.2293,-0.2306,-0.2318,-0.2121,0,0,0,0,0,-0.2011,-0.2036,-0.209,-0.2112,-0.2137,-0.2163,-0.2186,-0.22,-0.223,-0.2237,-0.2234,-0.224,-0.2271,-0.2278,-0.2296,-0.2341,-0.2305,-0.236,-0.2373,-0.2385,-0.2398,-0.2383,-0.2396,-0.2266,-0.2266,-0.2266,0,0,-0.2003,-0.2034,-0.2045,-0.2109,-0.2133,-0.2216,-0.2172,-0.2219,-0.2285,-0.223,-0.2296,-0.2285,-0.2296,-0.2354,-0.2371,-0.234,-0.2405,-0.2393,-0.2403,-0.2409,-0.2391,-0.2404,-0.2414,-0.2271,-0.227,-0.2269,0,0,-0.2033,-0.2033,-0.2081,-0.2138,-0.2197,-0.2234,-0.2251,-0.2304,-0.2318,-0.2383,-0.2369,-0.2382,-0.2416,-0.2439,-0.2454,-0.2552,-0.2477,-0.2552,-0.2626,-0.2613,-0.2622,-0.263,-0.2597,-0.2602,-0.2557,-0.2557,-0.2557,0,-0.2019,-0.2088,-0.2106,-0.219,-0.2238,-0.2251,-0.2336,-0.2382,-0.2441,-0.2447,-0.2414,-0.2461,-0.246,-0.2538,-0.2586,-0.2578,-0.2554,-0.2559,-0.2627,-0.2634,-0.2641,-0.2605,-0.2608,-0.2563,-0.2562,-0.2561,-0.2561,0,-0.211,-0.2168,-0.2203,-0.2312,-0.2377,-0.244,-0.252,-0.2559,-0.2553,-0.2574,-0.261,-0.2612,-0.2626,-0.264,-0.2651,-0.2713,-0.2675,-0.2642,-0.2577,-0.2659,-0.2617,-0.2619,-0.2571,-0.2569,-0.2567,-0.2566,0,0,-0.2049,-0.2229,-0.2235,-0.2301,-0.2438,-0.2494,-0.261,-0.2691,-0.2722,-0.2746,-0.2776,-0.2831,-0.2777,-0.2794,-0.2787,-0.2796,-0.2824,-0.2756,-0.2752,-0.2709,-0.2786,-0.258,-0.2561,-0.2801,-0.2802,-0.2803,-0.2735,0,-0.2097,-0.226,-0.2345,-0.249,-0.2576,-0.2643,-0.2737,-0.2811,-0.2836,-0.2872,-0.2857,-0.2879,-0.2857,-0.2844,-0.2861,-0.2851,-0.2835,-0.2845,-0.2726,-0.2723,-0.2517,-0.2558,-0.244,-0.2354,-0.2736,-0.2736,-0.2736,0,-0.2139,-0.2248,-0.2402,-0.2555,-0.2591,-0.2681,-0.278,-0.2869,-0.2939,-0.2946,-0.2964,-0.2949,-0.3,-0.2935,-0.2936,-0.2946,-0.2877,-0.2843,-0.2838,-0.2612,-0.252,-0.2337,-0.2341,-0.236,-0.2738,-0.2738,-0.2738,0,-0.2061,-0.2264,-0.2374,-0.244,-0.2637,-0.2683,-0.2758,-0.2857,-0.2901,-0.298,-0.2986,-0.3033,-0.3014,-0.2997,-0.2908,-0.2942,-0.2853,-0.2875,-0.2613,-0.2597,-0.2454,-0.2421,-0.2445,-0.2827,-0.2827,-0.2827,-0.2827,0,-0.2061,-0.2135,-0.2337,-0.24,-0.2484,-0.2634,-0.2702,-0.2776,-0.2874,-0.2899,-0.2991,-0.2972,-0.3024,-0.2967,-0.2924,-0.2745,-0.2842,-0.2626,-0.2566,-0.2483,-0.2456,-0.2427,-0.2471,-0.2824,-0.2825,-0.2826,-0.2826,0,-0.194,-0.209,-0.2204,-0.2399,-0.2452,-0.2492,-0.2645,-0.2682,-0.28,-0.2842,-0.2861,-0.2929,-0.284,-0.2819,-0.2752,-0.2698,-0.253,-0.2469,-0.235,-0.2275,-0.2086,-0.2139,-0.2074,-0.2015,-0.2248,-0.2243,-0.2238,0,-0.1896,-0.1954,-0.2143,-0.2178,-0.2254,-0.2357,-0.241,-0.2594,-0.2648,-0.2761,-0.2751,-0.2708,-0.2571,-0.2409,-0.2316,-0.2172,-0.2232,-0.2011,-0.205,-0.205,-0.2069,-0.2137,-0.2101,-0.1919,-0.1912,-0.1906,-0.1902,0,-0.1778,-0.183,-0.1903,-0.1985,-0.2054,-0.2145,-0.2249,-0.2302,-0.2487,-0.2506,-0.2434,-0.2326,-0.217,-0.194,-0.179,-0.1735,-0.1992,-0.1885,-0.1942,-0.185,-0.1874,-0.1794,-0.1992,-0.1852,-0.1857,-0.186,-0.1863,-0.1865,-0.1628,-0.1616,-0.1695,-0.1747,-0.1816,-0.1869,-0.1869,-0.1979,-0.1998,-0.197,-0.2027,-0.1755,-0.1689,-0.1428,-0.14,-0.1394,-0.1502,-0.143,-0.1507,-0.1586,-0.1492,-0.1543,-0.1285,-0.1286,-0.1288,-0.1289,-0.129,0,-0.1462,-0.1451,-0.146,-0.1506,-0.1479,-0.161,-0.1699,-0.166,-0.1579,-0.1524,-0.1383,-0.1096,-0.0996,-0.1027,-0.1094,-0.1084,-0.115,-0.1125,-0.1278,-0.1267,-0.1353,-0.1299,-0.0961,-0.0961,-0.0961,-0.0961,-0.0961,-0.0961,-0.1368,-0.1301,-0.1303,-0.1176,-0.1184,-0.1116,-0.1124,-0.1074,-0.101,-0.0733,-0.0489,-0.0342,-0.0481,-0.0945,-0.1107,-0.1083,-0.1142,-0.1053,-0.1132,-0.1291,-0.133,-0.1368,-0.1329,-0.1003,-0.1003,-0.1007,-0.1007,-0.1007]},{"header":{"parameterUnit":"m.s-1","parameterCategory":2,"la1":30.2991,"la2":30.254,"lo1":-89.0895,"lo2":-89.0444,"dy":0.0017,"dx":0.0017,"nx":28,"ny":28,"refTime":"2024-06-08T09:00:00:Z","depth":"0","parameterNumber":3,"parameterNumberName":"V-component_of_CURRENTS"},"data":[0,0,0,0,0,0,0,0,0,0,0,0,0,0,0,0,0,0,0,0,0,0,0,0,0,0,0,0,0,0,0,0,0,0,0,0,0,0,0,0,0,0,0,0,0,0,0,0,0,0,0,0,0,0,0,0,0,0,-0.0127,-0.0127,0,-0.0048,-0.0047,-0.0046,0.0023,0.0023,0.0024,0.0025,0.0065,0.0065,0.0066,0,0,0,0,0,0,0,0,0,0,0,0,0,-0.0167,-0.0166,-0.0127,-0.0127,-0.0126,-0.0048,-0.0047,-0.0046,0.0023,0.0023,0.0024,0.0025,0.0065,0.0065,0.0066,0,0,0,0,0,0,0,0,0,0,0,0,0,-0.0124,-0.0166,-0.0128,-0.0083,-0.0078,-0.0049,-0.0047,-0.0046,0.0022,0.0023,0.0024,0.0025,0.0065,0.0065,0.0066,0.005,0,0,0.0068,0.0068,0,0,0,0,0,0,0,0,-0.0126,-0.0122,-0.0091,-0.0086,-0.0081,-0.0023,-0.0046,-0.0016,0.0022,-0.0015,0.0025,0.0026,0.003,0.0034,0.0049,0.0052,0.0054,0.0068,0.0068,0.0069,0.0069,0,0,0,0,0,0,0,-0.0129,-0.0125,-0.0095,-0.009,-0.0084,-0.0049,-0.0042,-0.004,0.0002,-0.0011,-0.0006,0.0,0.0033,0.0048,0.005,0.0054,0.0068,0.0069,0.0069,0.0069,0.0021,0.0019,0,0,0,0,0,0,-0.0146,-0.0128,-0.0097,-0.0093,-0.0103,-0.005,-0.0042,-0.0041,0.0003,0.001,-0.0001,0.0003,0.0047,0.0049,0.0052,-0.0033,0.0069,0.0069,0.007,0.0023,0.002,0.0019,0,0,0,0,0,0,-0.0147,-0.0144,-0.0101,-0.0109,-0.0101,-0.0051,-0.005,-0.004,-0.0025,0.0011,0.0018,0.0004,0.0048,0.0051,0.0057,-0.0028,0.007,0.007,0.0025,0.0022,0.002,-0.0158,0,0,0,0,0,0,-0.0149,-0.0145,-0.0151,-0.0111,-0.0101,-0.0104,-0.0051,-0.004,-0.0023,-0.0017,0.0017,0.0022,0.0049,0.0056,0.0058,-0.0025,0.0071,0.0027,0.0023,0.002,-0.015,-0.0167,-0.0181,0,0,0,0,0,-0.015,-0.0176,-0.0152,-0.0148,-0.0112,-0.0106,-0.0099,-0.0057,-0.0024,-0.0035,0.0004,0.0021,0.0036,0.0056,0.0058,-0.0027,0.0028,0.0024,0.0021,-0.0144,-0.0163,-0.018,0,0,0,0,0,0,-0.0194,-0.017,-0.0143,-0.0158,-0.0139,-0.0095,-0.01,-0.0066,-0.0041,-0.0035,0.0013,0.0019,-0.0011,0.002,0.004,-0.0045,0.0028,0.0025,-0.0097,-0.0116,-0.013,-0.0171,0.0071,0,0,0,0,0,-0.0207,-0.0219,-0.0186,-0.0196,-0.0193,-0.0145,-0.0135,-0.011,-0.0081,-0.0067,-0.0039,-0.0018,-0.0027,-0.0036,-0.0023,-0.0068,0.0005,-0.0121,-0.0136,-0.015,-0.0178,-0.0148,-0.0164,0.0006,0.0006,0.0006,0,0,-0.0224,-0.0213,-0.0217,-0.0206,-0.0185,-0.0245,-0.0137,-0.0138,-0.0193,-0.0071,-0.0122,-0.0063,-0.0042,-0.0091,-0.0105,-0.0079,-0.0144,-0.0154,-0.0167,-0.0188,-0.0154,-0.0171,-0.0186,0.0004,0.0004,0.0004,0,0,-0.0316,-0.0258,-0.0328,-0.0332,-0.0322,-0.0299,-0.0307,-0.0272,-0.0255,-0.0282,-0.0216,-0.0197,-0.0206,-0.0207,-0.0214,-0.0304,-0.0214,-0.0303,-0.0436,-0.0407,-0.0421,-0.0433,-0.0297,-0.0296,-0.0326,-0.0327,-0.0327,0,-0.0343,-0.0416,-0.0345,-0.0433,-0.0446,-0.0345,-0.0435,-0.0427,-0.0393,-0.038,-0.0329,-0.0304,-0.0281,-0.0347,-0.0383,-0.0348,-0.0268,-0.0375,-0.0429,-0.044,-0.0449,-0.0307,-0.0303,-0.0336,-0.0335,-0.0334,-0.0333,0,-0.0523,-0.0568,-0.0604,-0.0684,-0.0694,-0.073,-0.0716,-0.0709,-0.0657,-0.0632,-0.0628,-0.0556,-0.0538,-0.054,-0.0503,-0.0568,-0.0462,-0.0441,-0.039,-0.0478,-0.032,-0.0313,-0.0349,-0.0346,-0.0343,-0.0341,0,0,-0.0604,-0.0711,-0.0724,-0.078,-0.0813,-0.0833,-0.0914,-0.0929,-0.0947,-0.0905,-0.0918,-0.0926,-0.0818,-0.0816,-0.0739,-0.0728,-0.0704,-0.0632,-0.0626,-0.0507,-0.0554,-0.0399,-0.0374,-0.0693,-0.0695,-0.0696,-0.0394,0,-0.0756,-0.0948,-0.0963,-0.1116,-0.1189,-0.1126,-0.1198,-0.1195,-0.114,-0.1121,-0.1037,-0.1022,-0.095,-0.091,-0.09,-0.074,-0.0704,-0.0782,-0.0478,-0.0467,-0.0332,-0.0371,-0.0264,0.0018,-0.0386,-0.0384,-0.0383,0,-0.0937,-0.1024,-0.1207,-0.128,-0.1305,-0.1388,-0.1393,-0.1439,-0.1395,-0.1344,-0.1299,-0.1197,-0.1158,-0.1077,-0.0894,-0.0939,-0.0784,-0.0657,-0.0642,-0.0445,-0.0304,0.0028,0.0048,0.0189,-0.0371,-0.0372,-0.0373,0,-0.1008,-0.1178,-0.1308,-0.1348,-0.1443,-0.1487,-0.1511,-0.1497,-0.15,-0.1458,-0.1422,-0.1347,-0.1247,-0.1119,-0.0839,-0.0876,-0.0578,-0.0589,-0.0293,-0.0274,-0.0099,-0.0064,0.0072,-0.0491,-0.0492,-0.0493,-0.0493,0,-0.114,-0.1237,-0.1349,-0.1421,-0.1529,-0.1561,-0.163,-0.1628,-0.1611,-0.1593,-0.1524,-0.1451,-0.126,-0.1048,-0.0855,-0.0503,-0.058,-0.0313,-0.0215,-0.0146,-0.0121,0.0079,0.0123,-0.0481,-0.0483,-0.0486,-0.0488,0,-0.1194,-0.1282,-0.1416,-0.1534,-0.1571,-0.1632,-0.1697,-0.1717,-0.1705,-0.1667,-0.1656,-0.1499,-0.1203,-0.094,-0.0628,-0.0463,-0.0042,-0.0044,0.0086,0.019,0.0526,0.0558,0.0828,0.0954,0.0287,0.0293,0.0297,0,-0.1237,-0.1327,-0.1472,-0.1525,-0.1582,-0.1671,-0.171,-0.1749,-0.175,-0.1664,-0.1627,-0.1366,-0.1149,-0.0604,-0.0223,0.019,0.0256,0.0492,0.0381,0.0561,0.0668,0.0665,0.0748,0.0597,0.0603,0.0608,0.0613,0,-0.1284,-0.1336,-0.1422,-0.1544,-0.1618,-0.1694,-0.1749,-0.1772,-0.1761,-0.1707,-0.1543,-0.138,-0.0834,-0.0312,0.023,0.0451,0.0619,0.0612,0.0731,0.0856,0.0928,0.1094,0.0455,0.066,0.0655,0.0652,0.0649,0.0647,-0.1269,-0.1325,-0.1434,-0.1541,-0.1613,-0.1666,-0.1694,-0.1694,-0.1664,-0.1535,-0.1448,-0.1178,-0.0448,0.0333,0.0576,0.1162,0.1045,0.1253,0.1275,0.1255,0.1349,0.0859,0.1191,0.1189,0.1188,0.1187,0.1186,0,-0.1241,-0.1319,-0.142,-0.1533,-0.1584,-0.1642,-0.1674,-0.1637,-0.1529,-0.1407,-0.1245,-0.0622,0.0114,0.0726,0.1605,0.18,0.1785,0.1871,0.185,0.1898,0.1432,0.1412,0.1885,0.1885,0.1885,0.1885,0.1885,0.1884,-0.1225,-0.1311,-0.1383,-0.1473,-0.1535,-0.1562,-0.1558,-0.146,-0.136,-0.1031,-0.0772,-0.0593,0.0322,0.1545,0.2248,0.2291,0.241,0.2416,0.2462,0.2082,0.2022,0.1965,0.1954,0.2534,0.2534,0.2926,0.293,0.2933]}],[{"header":{"parameterUnit":"m.s-1","parameterCategory":2,"la1":30.2991,"la2":30.254,"lo1":-89.0895,"lo2":-89.0444,"dy":0.0017,"dx":0.0017,"nx":28,"ny":28,"refTime":"2024-06-08T09:00:00:Z","depth":"2","parameterNumber":2,"parameterNumberName":"U-component_of_CURRENTS"},"data":[0,0,0,0,0,0,0,0,0,0,0,0,0,0,0,0,0,0,0,0,0,0,0,0,0,0,0,0,0,0,0,0,0,0,0,0,0,0,0,0,0,0,0,0,0,0,0,0,0,0,0,0,0,0,0,0,0,0,-0.2033,-0.2034,0,-0.2096,-0.2096,-0.2097,-0.2085,-0.2085,-0.2084,-0.2083,-0.2062,-0.2062,-0.2063,0,0,0,0,0,0,0,0,0,0,0,0,0,-0.1938,-0.194,-0.2033,-0.2034,-0.2035,-0.2096,-0.2096,-0.2097,-0.2086,-0.2084,-0.2083,-0.2082,-0.2062,-0.2062,-0.2063,0,0,0,0,0,0,0,0,0,0,0,0,0,-0.1986,-0.194,-0.2033,-0.2038,-0.204,-0.2095,-0.2096,-0.2097,-0.2086,-0.2084,-0.2083,-0.2082,-0.2062,-0.2062,-0.2063,-0.2093,0,0,-0.2064,-0.2064,0,0,0,0,0,0,0,0,-0.1983,-0.1989,-0.2037,-0.2038,-0.204,-0.2083,-0.2055,-0.2092,-0.2086,-0.2066,-0.2083,-0.2081,-0.2064,-0.2064,-0.2077,-0.2092,-0.2091,-0.2064,-0.2064,-0.2065,-0.2065,0,0,0,0,0,0,0,-0.198,-0.1987,-0.2056,-0.2038,-0.204,-0.205,-0.2054,-0.2063,-0.2069,-0.2068,-0.2068,-0.2078,-0.2064,-0.2077,-0.2076,-0.209,-0.2064,-0.2064,-0.2065,-0.2065,-0.2112,-0.2113,0,0,0,0,0,0,-0.1977,-0.1984,-0.2054,-0.2058,-0.201,-0.2052,-0.2058,-0.2069,-0.207,-0.2071,-0.208,-0.2078,-0.2077,-0.2076,-0.2075,-0.2102,-0.2065,-0.2065,-0.2065,-0.2111,-0.2112,-0.2113,0,0,0,0,0,0,-0.1974,-0.1982,-0.2051,-0.2024,-0.2033,-0.2055,-0.2068,-0.2071,-0.2082,-0.2081,-0.2078,-0.2088,-0.2075,-0.2075,-0.2085,-0.2101,-0.2065,-0.2066,-0.211,-0.2111,-0.2113,-0.2161,0,0,0,0,0,0,-0.1971,-0.1981,-0.1986,-0.2024,-0.2035,-0.209,-0.207,-0.2073,-0.2092,-0.209,-0.2088,-0.2084,-0.2074,-0.2085,-0.2086,-0.2101,-0.2066,-0.2109,-0.2111,-0.2112,-0.2159,-0.2164,-0.2169,0,0,0,0,0,-0.1968,-0.1986,-0.1986,-0.1995,-0.2042,-0.2091,-0.2098,-0.2107,-0.2094,-0.211,-0.2103,-0.2084,-0.2097,-0.2087,-0.2087,-0.2103,-0.2108,-0.211,-0.2112,-0.2156,-0.2163,-0.2169,0,0,0,0,0,0,-0.1945,-0.1988,-0.1989,-0.2017,-0.2052,-0.209,-0.2104,-0.2113,-0.2123,-0.2113,-0.2102,-0.21,-0.2112,-0.2105,-0.2094,-0.2122,-0.2098,-0.21,-0.2131,-0.2138,-0.2143,-0.2149,-0.2066,0,0,0,0,0,-0.1944,-0.1965,-0.2009,-0.2029,-0.2047,-0.2075,-0.2094,-0.2106,-0.2123,-0.2126,-0.2127,-0.2123,-0.2125,-0.2128,-0.2129,-0.2152,-0.2133,-0.2161,-0.2166,-0.2171,-0.2177,-0.2178,-0.2184,-0.2121,-0.2121,-0.2121,0,0,-0.1939,-0.1964,-0.1975,-0.2025,-0.2046,-0.208,-0.2082,-0.2116,-0.214,-0.2122,-0.2144,-0.2142,-0.2134,-0.2154,-0.2159,-0.215,-0.2175,-0.2174,-0.2178,-0.2181,-0.2181,-0.2187,-0.2192,-0.2122,-0.2122,-0.2122,0,0,-0.1936,-0.1963,-0.1976,-0.2012,-0.2054,-0.2084,-0.2095,-0.214,-0.2154,-0.2188,-0.2171,-0.2182,-0.2195,-0.2195,-0.2194,-0.2233,-0.22,-0.2231,-0.2269,-0.227,-0.2275,-0.2279,-0.2242,-0.2243,-0.2238,-0.2238,-0.2238,0,-0.1923,-0.1947,-0.1989,-0.2014,-0.2045,-0.2085,-0.2113,-0.2144,-0.2186,-0.2206,-0.2197,-0.2224,-0.2215,-0.2237,-0.2249,-0.2245,-0.2228,-0.2244,-0.2276,-0.228,-0.2284,-0.2245,-0.2245,-0.2241,-0.224,-0.224,-0.224,0,-0.1926,-0.1953,-0.1968,-0.2011,-0.2057,-0.209,-0.2147,-0.2187,-0.2212,-0.224,-0.2275,-0.2276,-0.2291,-0.2293,-0.2284,-0.2309,-0.2281,-0.2279,-0.2259,-0.2293,-0.225,-0.2249,-0.2245,-0.2244,-0.2243,-0.2242,0,0,-0.1878,-0.1952,-0.1955,-0.1989,-0.2059,-0.2107,-0.2157,-0.2223,-0.2267,-0.2297,-0.2342,-0.2351,-0.2357,-0.2356,-0.2348,-0.2356,-0.2358,-0.2335,-0.2334,-0.2296,-0.2335,-0.2248,-0.2238,-0.2365,-0.2366,-0.2367,-0.2286,0,-0.1861,-0.1908,-0.1952,-0.2014,-0.2055,-0.2124,-0.2174,-0.2244,-0.2302,-0.236,-0.2371,-0.2404,-0.2378,-0.2393,-0.2395,-0.2375,-0.2362,-0.2378,-0.2309,-0.2307,-0.2224,-0.2237,-0.2064,-0.1973,-0.2285,-0.2285,-0.2285,0,-0.1845,-0.1887,-0.1941,-0.2039,-0.2062,-0.2114,-0.2232,-0.2272,-0.236,-0.2402,-0.2442,-0.246,-0.2472,-0.2451,-0.2419,-0.2431,-0.2384,-0.2361,-0.2357,-0.2261,-0.2219,-0.1994,-0.1959,-0.2283,-0.2283,-0.2283,-0.2284,0,-0.1816,-0.1885,-0.1933,-0.1966,-0.2078,-0.2131,-0.2182,-0.2288,-0.2336,-0.2427,-0.2482,-0.2499,-0.2524,-0.2474,-0.2419,-0.2426,-0.2372,-0.2371,-0.2239,-0.2231,-0.2062,-0.2037,-0.234,-0.234,-0.234,-0.234,-0.234,0,-0.1797,-0.1839,-0.1931,-0.1972,-0.2043,-0.212,-0.2205,-0.2273,-0.2362,-0.2418,-0.2485,-0.251,-0.254,-0.2516,-0.2433,-0.232,-0.2371,-0.224,-0.2211,-0.207,-0.2049,-0.2309,-0.2306,-0.2337,-0.2338,-0.2338,-0.2339,0,-0.1775,-0.1821,-0.19,-0.2012,-0.2041,-0.2099,-0.2205,-0.2241,-0.2353,-0.2432,-0.2459,-0.2539,-0.2485,-0.2469,-0.2403,-0.2345,-0.2238,-0.2179,-0.1996,-0.1947,-0.209,-0.2091,-0.2032,-0.2029,-0.2026,-0.2023,-0.2021,0,-0.1768,-0.18,-0.1923,-0.1935,-0.1988,-0.2067,-0.2088,-0.2215,-0.2258,-0.2408,-0.2413,-0.2452,-0.24,-0.2272,-0.2166,-0.2013,-0.2103,-0.1823,-0.1813,-0.2084,-0.2062,-0.2068,-0.2073,-0.1593,-0.1588,-0.1583,-0.158,0,-0.1746,-0.1794,-0.1845,-0.1876,-0.1913,-0.1961,-0.2019,-0.2079,-0.221,-0.2238,-0.2228,-0.2202,-0.2153,-0.1929,-0.1839,-0.1727,-0.1839,-0.1728,-0.2055,-0.1709,-0.1666,-0.1646,-0.1666,-0.154,-0.1544,-0.1547,-0.1549,-0.155,-0.1704,-0.1726,-0.1758,-0.178,-0.1806,-0.182,-0.1807,-0.1868,-0.1877,-0.1904,-0.1972,-0.1852,-0.1876,-0.1579,-0.1464,-0.1402,-0.1524,-0.1478,-0.1493,-0.1513,-0.1488,-0.1444,-0.1268,-0.127,-0.1272,-0.1274,-0.1275,0,-0.1615,-0.1619,-0.1625,-0.163,-0.1585,-0.1659,-0.1696,-0.1633,-0.1565,-0.1617,-0.1547,-0.1362,-0.1222,-0.1231,-0.106,-0.1049,-0.1056,-0.1022,-0.1031,-0.107,-0.1104,-0.1062,-0.0726,-0.0725,-0.0724,-0.0723,0,0,-0.1551,-0.1515,-0.1516,-0.1398,-0.1381,-0.1289,-0.1285,-0.1224,-0.1224,-0.1093,-0.1025,-0.1107,-0.1171,-0.0935,-0.0895,-0.0783,-0.0923,-0.0743,-0.1177,-0.1224,-0.1258,-0.1352,-0.1327,0,0,0,0,0]},{"header":{"parameterUnit":"m.s-1","parameterCategory":2,"la1":30.2991,"la2":30.254,"lo1":-89.0895,"lo2":-89.0444,"dy":0.0017,"dx":0.0017,"nx":28,"ny":28,"refTime":"2024-06-08T09:00:00:Z","depth":"2","parameterNumber":3,"parameterNumberName":"V-component_of_CURRENTS"},"data":[0,0,0,0,0,0,0,0,0,0,0,0,0,0,0,0,0,0,0,0,0,0,0,0,0,0,0,0,0,0,0,0,0,0,0,0,0,0,0,0,0,0,0,0,0,0,0,0,0,0,0,0,0,0,0,0,0,0,-0.0084,-0.0083,0,-0.0011,-0.001,-0.0009,0.005,0.005,0.0051,0.0051,0.0173,0.0175,0.0178,0,0,0,0,0,0,0,0,0,0,0,0,0,-0.0125,-0.0125,-0.0084,-0.0083,-0.0082,-0.0011,-0.001,-0.0009,0.005,0.005,0.0051,0.0051,0.0172,0.0175,0.0178,0,0,0,0,0,0,0,0,0,0,0,0,0,-0.0084,-0.0125,-0.0084,-0.0045,-0.0041,-0.0011,-0.001,-0.0008,0.0049,0.005,0.0051,0.0052,0.0171,0.0175,0.0179,0.0189,0,0,0.0191,0.0193,0,0,0,0,0,0,0,0,-0.0087,-0.0083,-0.0052,-0.0048,-0.0043,0.001,0.002,0.006,0.0049,0.0016,0.0051,0.0052,0.0122,0.013,0.0143,0.0195,0.02,0.0192,0.0194,0.0196,0.0197,0,0,0,0,0,0,0,-0.009,-0.0085,-0.0054,-0.0051,-0.0046,-0.0015,-0.0009,0.0028,0.0065,0.0019,0.0023,0.003,0.0124,0.0138,0.0146,0.0202,0.0192,0.0195,0.0198,0.0199,0.0301,0.0301,0,0,0,0,0,0,-0.0104,-0.0088,-0.0056,-0.0052,-0.0065,-0.0015,-0.0008,-0.0007,0.0064,0.0075,0.0029,0.0032,0.0131,0.0141,0.0151,0.0189,0.0196,0.02,0.0202,0.0301,0.0301,0.0301,0,0,0,0,0,0,-0.0105,-0.0102,-0.0059,-0.0069,-0.0061,-0.0016,-0.0014,-0.0006,0.0008,0.0071,0.0083,0.0034,0.0132,0.0145,0.0182,0.0193,0.0202,0.0206,0.0301,0.0301,0.0301,0.0252,0,0,0,0,0,0,-0.0107,-0.0103,-0.0109,-0.007,-0.0061,-0.0049,-0.0015,-0.0005,0.0011,0.0016,0.0079,0.0091,0.0134,0.0175,0.0186,0.0199,0.0209,0.03,0.0301,0.0301,0.0253,0.025,0.0248,0,0,0,0,0,-0.0109,-0.0125,-0.011,-0.0106,-0.007,-0.005,-0.0043,-0.0007,0.001,0.001,0.0056,0.0089,0.0186,0.0178,0.0191,0.0206,0.03,0.0301,0.0301,0.0254,0.0251,0.0248,0,0,0,0,0,0,-0.0144,-0.0119,-0.0102,-0.0109,-0.0083,-0.0041,-0.0039,-0.0014,0.0021,0.0026,0.0087,0.0102,0.014,0.0176,0.0166,0.0236,0.0251,0.0254,0.0211,0.0208,0.0206,0.0203,0.0212,0,0,0,0,0,-0.0156,-0.0161,-0.0127,-0.0131,-0.0124,-0.0082,-0.007,-0.0047,-0.0011,0.0005,0.0052,0.0104,0.0151,0.018,0.022,0.0256,0.0295,0.0275,0.0272,0.027,0.0277,0.0336,0.0339,0.0303,0.0303,0.0303,0,0,-0.017,-0.0157,-0.0158,-0.0139,-0.0116,-0.0105,-0.0073,-0.0063,-0.0043,0.0013,0.0049,0.009,0.0155,0.0197,0.0218,0.023,0.03,0.0271,0.0268,0.0276,0.0337,0.0341,0.0344,0.0303,0.0303,0.0303,0,0,-0.0197,-0.019,-0.0199,-0.0184,-0.0159,-0.0132,-0.0133,-0.0094,-0.0068,-0.0035,0.0016,0.0063,0.0127,0.0184,0.022,0.0228,0.0277,0.0239,0.0233,0.029,0.0294,0.0297,0.0343,0.0351,0.0245,0.0245,0.0245,0,-0.0213,-0.0218,-0.0198,-0.0198,-0.0191,-0.0147,-0.015,-0.0115,-0.0066,-0.004,-0.0031,0.0081,0.0127,0.0203,0.0205,0.0224,0.0257,0.0238,0.0287,0.0291,0.0296,0.0342,0.0351,0.0243,0.0243,0.0243,0.0243,0,-0.0232,-0.0243,-0.025,-0.0233,-0.0222,-0.0223,-0.0176,-0.0154,-0.0121,-0.0075,-0.0009,0.0058,0.0128,0.0151,0.0181,0.0243,0.0255,0.0268,0.0292,0.0296,0.0344,0.0355,0.0239,0.024,0.0241,0.0241,0,0,-0.025,-0.0263,-0.0263,-0.0281,-0.0246,-0.0248,-0.021,-0.0166,-0.014,-0.0075,-0.0026,0.0058,0.0098,0.0142,0.0194,0.0249,0.0301,0.0266,0.0271,0.0306,0.0419,0.0425,0.0438,0.0319,0.0321,0.0322,0.0435,0,-0.0269,-0.0303,-0.0289,-0.0315,-0.0334,-0.0291,-0.026,-0.0212,-0.0158,-0.0098,-0.0001,0.0057,0.0097,0.0124,0.0189,0.0277,0.0329,0.0269,0.0414,0.0419,0.042,0.0451,0.0427,0.0526,0.0446,0.0448,0.045,0,-0.028,-0.0311,-0.035,-0.0379,-0.0379,-0.0384,-0.0347,-0.0311,-0.0203,-0.0156,-0.0064,0.0013,0.0123,0.0139,0.0307,0.0264,0.0332,0.0398,0.0404,0.0438,0.0446,0.0512,0.0549,0.0468,0.0467,0.0465,0.0464,0,-0.0318,-0.0353,-0.0397,-0.0404,-0.0413,-0.0427,-0.0419,-0.0338,-0.0309,-0.0194,-0.0153,-0.0006,0.0068,0.0185,0.0329,0.0314,0.0506,0.0504,0.0578,0.0579,0.0604,0.0604,0.0607,0.0607,0.0607,0.0607,0.0606,0,-0.0346,-0.0387,-0.0434,-0.0467,-0.0519,-0.0495,-0.051,-0.0466,-0.0386,-0.0347,-0.0197,-0.0107,0.0081,0.0221,0.0332,0.0501,0.0513,0.059,0.0617,0.0584,0.0581,0.0567,0.056,0.0611,0.061,0.0609,0.0609,0,-0.0388,-0.0404,-0.0482,-0.0534,-0.0549,-0.0594,-0.0608,-0.0598,-0.051,-0.0451,-0.0417,-0.018,0.0027,0.0209,0.0423,0.0505,0.0657,0.0703,0.0649,0.0666,0.0688,0.0678,0.0803,0.0804,0.0805,0.0806,0.0807,0,-0.0417,-0.0456,-0.0555,-0.0603,-0.0643,-0.0696,-0.0712,-0.0668,-0.0651,-0.0484,-0.0447,-0.0217,0.0015,0.0356,0.0521,0.0729,0.0717,0.0784,0.0753,0.0699,0.0712,0.07,0.0689,0.0767,0.0767,0.0768,0.0768,0,-0.0486,-0.052,-0.0589,-0.0687,-0.075,-0.0806,-0.0837,-0.0847,-0.0764,-0.0657,-0.0443,-0.0226,0.0129,0.0428,0.0669,0.0766,0.0751,0.0796,0.0784,0.0709,0.0671,0.0681,0.0671,0.0771,0.077,0.077,0.077,0.077,-0.0539,-0.0607,-0.0685,-0.0773,-0.0839,-0.09,-0.093,-0.092,-0.0855,-0.0655,-0.0426,-0.0051,0.0174,0.0599,0.0737,0.0819,0.0824,0.0833,0.083,0.0827,0.0791,0.0756,0.0865,0.0865,0.0865,0.0865,0.0865,0,-0.0599,-0.0659,-0.0751,-0.0854,-0.0918,-0.0939,-0.0978,-0.0956,-0.0872,-0.0584,-0.0289,0.0048,0.0398,0.0609,0.0766,0.0866,0.0841,0.0858,0.0812,0.0809,0.0806,0.0766,0.0836,0.0836,0.0836,0.0836,0,0,-0.0631,-0.0722,-0.0765,-0.0884,-0.0942,-0.0989,-0.1006,-0.0951,-0.0765,-0.0452,-0.015,0.0245,0.0489,0.057,0.0694,0.0788,0.0769,0.078,0.0795,0.0726,0.0722,0.0785,0.0719,0,0,0,0,0]}],[{"header":{"parameterUnit":"m.s-1","parameterCategory":2,"la1":30.2991,"la2":30.254,"lo1":-89.0895,"lo2":-89.0444,"dy":0.0017,"dx":0.0017,"nx":28,"ny":28,"refTime":"2024-06-08T09:00:00:Z","depth":"4","parameterNumber":2,"parameterNumberName":"U-component_of_CURRENTS"},"data":[0,0,0,0,0,0,0,0,0,0,0,0,0,0,0,0,0,0,0,0,0,0,0,0,0,0,0,0,0,0,0,0,0,0,0,0,0,0,0,0,0,0,0,0,0,0,0,0,0,0,0,0,0,0,0,0,0,0,-0.1465,-0.1466,0,-0.1546,-0.1547,-0.1548,-0.1591,-0.1591,-0.1591,-0.1591,-0.1656,-0.1658,-0.1659,0,0,0,0,0,0,0,0,0,0,0,0,0,-0.1366,-0.1368,-0.1465,-0.1466,-0.1467,-0.1546,-0.1547,-0.1549,-0.1591,-0.1591,-0.1591,-0.1591,-0.1655,-0.1657,-0.1659,0,0,0,0,0,0,0,0,0,0,0,0,0,-0.1424,-0.1368,-0.1464,-0.1498,-0.1501,-0.1546,-0.1547,-0.1549,-0.1591,-0.1591,-0.1591,-0.1591,-0.1655,-0.1657,-0.166,-0.1672,0,0,-0.1667,-0.1668,0,0,0,0,0,0,0,0,-0.1421,-0.1428,-0.1492,-0.1495,-0.15,-0.1559,-0.1537,-0.1589,-0.1591,-0.1556,-0.1591,-0.1591,-0.1622,-0.1627,-0.1642,-0.1675,-0.1678,-0.1667,-0.1669,-0.167,-0.1671,0,0,0,0,0,0,0,-0.1417,-0.1424,-0.1497,-0.1493,-0.1498,-0.1516,-0.1524,-0.1547,-0.1587,-0.1559,-0.1563,-0.1572,-0.1624,-0.164,-0.1644,-0.1679,-0.1667,-0.167,-0.1671,-0.1672,-0.177,-0.1771,0,0,0,0,0,0,-0.1406,-0.1421,-0.1494,-0.1499,-0.146,-0.1517,-0.1526,-0.1539,-0.1587,-0.1595,-0.1572,-0.1574,-0.1635,-0.1641,-0.1646,-0.171,-0.167,-0.1672,-0.1674,-0.1769,-0.177,-0.1771,0,0,0,0,0,0,-0.1404,-0.1412,-0.1491,-0.1462,-0.1473,-0.1519,-0.1533,-0.1541,-0.1582,-0.1597,-0.1604,-0.1607,-0.1636,-0.1643,-0.1691,-0.171,-0.1673,-0.1676,-0.1767,-0.1769,-0.1771,-0.1807,0,0,0,0,0,0,-0.1401,-0.1411,-0.143,-0.1461,-0.1474,-0.1534,-0.1533,-0.1542,-0.1586,-0.159,-0.1629,-0.1634,-0.1636,-0.1687,-0.1693,-0.1713,-0.1678,-0.1766,-0.1768,-0.177,-0.1804,-0.1809,-0.1814,0,0,0,0,0,-0.1397,-0.1421,-0.1431,-0.1441,-0.1495,-0.1535,-0.1544,-0.1576,-0.1588,-0.1612,-0.164,-0.1634,-0.1704,-0.169,-0.1697,-0.1718,-0.1765,-0.1767,-0.177,-0.1802,-0.1808,-0.1814,0,0,0,0,0,0,-0.1391,-0.1428,-0.144,-0.1475,-0.1509,-0.1542,-0.1571,-0.1592,-0.1635,-0.1643,-0.1656,-0.1663,-0.1709,-0.1713,-0.1697,-0.1752,-0.1731,-0.1735,-0.1753,-0.1759,-0.1764,-0.1749,-0.168,0,0,0,0,0,-0.1396,-0.1425,-0.1459,-0.149,-0.1507,-0.1544,-0.157,-0.1592,-0.1626,-0.1647,-0.1675,-0.17,-0.1721,-0.174,-0.1759,-0.1798,-0.1783,-0.1813,-0.1818,-0.1822,-0.1816,-0.182,-0.1824,-0.1779,-0.1779,-0.1779,0,0,-0.1404,-0.1427,-0.1446,-0.1491,-0.1519,-0.1547,-0.1561,-0.1606,-0.1635,-0.1646,-0.1703,-0.1723,-0.1735,-0.1773,-0.1793,-0.1783,-0.1828,-0.1826,-0.1829,-0.182,-0.1823,-0.1827,-0.183,-0.1781,-0.1781,-0.178,0,0,-0.1413,-0.1452,-0.147,-0.15,-0.1546,-0.1571,-0.1589,-0.1638,-0.1669,-0.1722,-0.1731,-0.1764,-0.1811,-0.1817,-0.1824,-0.187,-0.1853,-0.1882,-0.1899,-0.1904,-0.1907,-0.1909,-0.1893,-0.1894,-0.1886,-0.1886,-0.1886,0,-0.1419,-0.1444,-0.1483,-0.1504,-0.1535,-0.1582,-0.1608,-0.1645,-0.1707,-0.1734,-0.1745,-0.181,-0.1824,-0.1853,-0.1868,-0.1879,-0.1875,-0.1875,-0.1909,-0.1911,-0.1913,-0.1896,-0.1896,-0.1888,-0.1887,-0.1887,-0.1887,0,-0.1426,-0.1459,-0.1476,-0.1516,-0.1558,-0.1594,-0.1643,-0.1692,-0.1737,-0.1768,-0.1826,-0.1849,-0.1882,-0.1894,-0.1897,-0.1923,-0.1912,-0.1913,-0.189,-0.1919,-0.19,-0.19,-0.1891,-0.189,-0.1889,-0.1889,0,0,-0.1405,-0.1467,-0.1475,-0.1502,-0.1571,-0.1606,-0.1662,-0.1722,-0.1765,-0.1818,-0.1865,-0.19,-0.1918,-0.1927,-0.1937,-0.1943,-0.1955,-0.194,-0.1939,-0.1916,-0.1955,-0.183,-0.1817,-0.1968,-0.1968,-0.1969,-0.1934,0,-0.1398,-0.1432,-0.1474,-0.153,-0.1556,-0.1627,-0.168,-0.1745,-0.1801,-0.1861,-0.1887,-0.1934,-0.1928,-0.1953,-0.1959,-0.1962,-0.1957,-0.1963,-0.1935,-0.1934,-0.1813,-0.1813,-0.197,-0.1933,-0.1933,-0.1933,-0.1933,0,-0.1383,-0.1413,-0.1454,-0.1544,-0.1567,-0.1612,-0.1715,-0.1764,-0.1847,-0.1894,-0.1936,-0.1966,-0.1988,-0.1981,-0.1979,-0.1987,-0.197,-0.1962,-0.1961,-0.1827,-0.1807,-0.19,-0.1933,-0.1933,-0.1933,-0.1933,-0.1933,0,-0.1338,-0.1407,-0.1444,-0.1472,-0.1571,-0.1618,-0.1677,-0.1771,-0.1818,-0.1907,-0.1944,-0.1987,-0.2004,-0.1999,-0.1985,-0.199,-0.1972,-0.1975,-0.1838,-0.1829,-0.1938,-0.1935,-0.1959,-0.1959,-0.1959,-0.1959,-0.1959,0,-0.1307,-0.1346,-0.1429,-0.145,-0.1518,-0.1597,-0.1673,-0.1744,-0.1827,-0.1856,-0.1946,-0.1961,-0.2012,-0.2011,-0.1993,-0.1902,-0.1973,-0.1825,-0.1807,-0.1954,-0.1954,-0.1937,-0.1935,-0.1958,-0.1958,-0.1959,-0.1959,0,-0.1255,-0.1304,-0.1358,-0.1458,-0.1495,-0.1543,-0.1656,-0.1689,-0.179,-0.1824,-0.1849,-0.1942,-0.1932,-0.1957,-0.195,-0.1886,-0.1835,-0.1787,-0.1932,-0.1926,-0.1687,-0.1687,-0.1619,-0.1614,-0.161,-0.1606,-0.1603,0,-0.1227,-0.1242,-0.1347,-0.1374,-0.1423,-0.1501,-0.1538,-0.1653,-0.1669,-0.1779,-0.1763,-0.1818,-0.1852,-0.174,-0.1793,-0.1743,-0.1724,-0.1689,-0.1688,-0.166,-0.1651,-0.1658,-0.1664,-0.1597,-0.1596,-0.1595,-0.1594,0,-0.117,-0.1215,-0.1254,-0.1302,-0.1346,-0.139,-0.1442,-0.1438,-0.1531,-0.1651,-0.163,-0.1637,-0.1628,-0.1635,-0.1615,-0.1582,-0.1711,-0.1646,-0.1654,-0.1653,-0.1633,-0.1629,-0.164,-0.158,-0.1582,-0.1583,-0.1584,0,-0.1127,-0.1138,-0.1177,-0.1214,-0.1261,-0.1233,-0.1286,-0.1285,-0.1322,-0.1433,-0.1421,-0.1493,-0.159,-0.1549,-0.1528,-0.1491,-0.1464,-0.1415,-0.1435,-0.1451,-0.1415,-0.1367,-0.1199,0,0,0,0,0,-0.1069,-0.1057,-0.108,-0.1098,-0.1133,-0.1153,-0.1195,-0.1238,-0.1322,-0.1256,-0.1333,-0.132,-0.1313,-0.1374,-0.1296,-0.1439,-0.1461,-0.1344,-0.1413,-0.1501,-0.1517,-0.1492,0,0,0,0,0,0,-0.1024,-0.1039,-0.1038,-0.0977,-0.0969,-0.0978,-0.0989,-0.1045,-0.1019,-0.113,-0.1137,-0.1246,-0.1264,-0.1342,-0.1279,-0.129,-0.1301,-0.1406,-0.1402,-0.1492,-0.1507,-0.152,-0.15,0,0,0,0,0]},{"header":{"parameterUnit":"m.s-1","parameterCategory":2,"la1":30.2991,"la2":30.254,"lo1":-89.0895,"lo2":-89.0444,"dy":0.0017,"dx":0.0017,"nx":28,"ny":28,"refTime":"2024-06-08T09:00:00:Z","depth":"4","parameterNumber":3,"parameterNumberName":"V-component_of_CURRENTS"},"data":[0,0,0,0,0,0,0,0,0,0,0,0,0,0,0,0,0,0,0,0,0,0,0,0,0,0,0,0,0,0,0,0,0,0,0,0,0,0,0,0,0,0,0,0,0,0,0,0,0,0,0,0,0,0,0,0,0,0,-0.0045,-0.0045,0,0.0007,0.0008,0.0008,0.0049,0.0049,0.005,0.005,0.0144,0.0146,0.0149,0,0,0,0,0,0,0,0,0,0,0,0,0,-0.0076,-0.0076,-0.0046,-0.0045,-0.0044,0.0007,0.0008,0.0009,0.0049,0.0049,0.005,0.005,0.0144,0.0146,0.0149,0,0,0,0,0,0,0,0,0,0,0,0,0,-0.0047,-0.0076,-0.0046,-0.0019,-0.0016,0.0007,0.0008,0.0009,0.0049,0.0049,0.005,0.005,0.0143,0.0146,0.0149,0.016,0,0,0.0159,0.0161,0,0,0,0,0,0,0,0,-0.0049,-0.0046,-0.0023,-0.002,-0.0017,0.0021,0.0032,0.0061,0.0049,0.0025,0.005,0.0051,0.0106,0.0113,0.0122,0.0165,0.0169,0.016,0.0162,0.0163,0.0164,0,0,0,0,0,0,0,-0.0051,-0.0047,-0.0024,-0.0023,-0.0019,0.0003,0.0007,0.0037,0.0064,0.0027,0.003,0.0035,0.0108,0.0119,0.0125,0.017,0.016,0.0163,0.0165,0.0166,0.0254,0.0255,0,0,0,0,0,0,-0.0061,-0.005,-0.0026,-0.0022,-0.0033,0.0003,0.0008,0.0009,0.0063,0.0071,0.0034,0.0036,0.0113,0.0121,0.0128,0.0172,0.0163,0.0166,0.0168,0.0254,0.0254,0.0255,0,0,0,0,0,0,-0.0062,-0.006,-0.0028,-0.0035,-0.003,0.0002,0.0004,0.001,0.0021,0.0067,0.0076,0.0039,0.0113,0.0123,0.0158,0.0175,0.0168,0.0171,0.0254,0.0254,0.0255,0.0244,0,0,0,0,0,0,-0.0063,-0.006,-0.0064,-0.0036,-0.003,-0.0016,0.0003,0.0011,0.0023,0.0026,0.0074,0.0083,0.0114,0.0152,0.0161,0.018,0.0173,0.0253,0.0254,0.0254,0.0243,0.0244,0.0244,0,0,0,0,0,-0.0065,-0.0073,-0.0065,-0.0062,-0.0036,-0.0016,-0.0011,0.0014,0.0022,0.0026,0.006,0.0082,0.0163,0.0155,0.0165,0.0186,0.0253,0.0254,0.0254,0.0243,0.0244,0.0244,0,0,0,0,0,0,-0.0087,-0.0069,-0.006,-0.0062,-0.0042,-0.001,-0.0007,0.0009,0.0038,0.0041,0.0085,0.0096,0.0132,0.0156,0.0147,0.0212,0.0212,0.0215,0.02,0.0201,0.0201,0.0201,0.0176,0,0,0,0,0,-0.0095,-0.0098,-0.0073,-0.0074,-0.0067,-0.0039,-0.0029,-0.0012,0.0016,0.0029,0.0065,0.0104,0.0142,0.0168,0.0199,0.0235,0.026,0.0254,0.0255,0.0255,0.026,0.0317,0.0323,0.0257,0.0257,0.0257,0,0,-0.0105,-0.0095,-0.0096,-0.0079,-0.0063,-0.0048,-0.0031,-0.002,-0.0001,0.0035,0.007,0.0101,0.0149,0.019,0.0209,0.0215,0.0283,0.0256,0.0255,0.0261,0.0318,0.0325,0.0331,0.0258,0.0258,0.0258,0,0,-0.0118,-0.0116,-0.0118,-0.0104,-0.0084,-0.0064,-0.0063,-0.0032,-0.0012,0.002,0.0055,0.0097,0.0148,0.0197,0.0226,0.0245,0.0275,0.0251,0.0263,0.0318,0.0324,0.033,0.0354,0.0362,0.026,0.026,0.026,0,-0.0129,-0.0131,-0.0114,-0.0108,-0.0104,-0.0072,-0.0071,-0.0039,0.0002,0.0022,0.0029,0.0121,0.0158,0.0228,0.0236,0.0248,0.027,0.0259,0.0319,0.0325,0.0331,0.0355,0.0364,0.0259,0.0259,0.0259,0.0259,0,-0.0131,-0.0139,-0.0141,-0.0122,-0.0112,-0.0111,-0.0071,-0.005,-0.0025,0.0012,0.0071,0.0129,0.0185,0.0208,0.0231,0.0297,0.0293,0.0305,0.0318,0.0337,0.036,0.037,0.0259,0.0259,0.0259,0.0259,0,0,-0.0145,-0.0145,-0.0146,-0.0162,-0.0128,-0.013,-0.0089,-0.0051,-0.003,0.0032,0.0074,0.0155,0.0186,0.0221,0.0263,0.0321,0.0378,0.033,0.0333,0.0353,0.0477,0.0431,0.0437,0.04,0.0402,0.0404,0.0469,0,-0.0155,-0.0171,-0.0157,-0.0175,-0.0187,-0.0155,-0.0126,-0.0083,-0.0035,0.0018,0.0106,0.0156,0.0194,0.0216,0.0286,0.0354,0.0405,0.0357,0.0457,0.0459,0.0417,0.0448,0.041,0.0477,0.0479,0.0481,0.0482,0,-0.0156,-0.0177,-0.02,-0.023,-0.0231,-0.0228,-0.0201,-0.0172,-0.0074,-0.0035,0.0053,0.0121,0.0227,0.0245,0.0392,0.0358,0.0413,0.0468,0.0472,0.0443,0.0432,0.0459,0.0499,0.0498,0.0497,0.0496,0.0494,0,-0.0189,-0.0214,-0.0247,-0.0252,-0.0258,-0.0265,-0.0262,-0.0189,-0.0172,-0.0065,-0.0033,0.0107,0.0171,0.028,0.04,0.0396,0.055,0.0556,0.0569,0.0565,0.059,0.0584,0.0652,0.0652,0.0652,0.0651,0.0651,0,-0.0211,-0.0245,-0.0274,-0.0297,-0.0344,-0.0323,-0.0338,-0.0304,-0.0238,-0.0208,-0.0072,-0.0006,0.0184,0.0301,0.0399,0.0513,0.055,0.0577,0.0588,0.058,0.0572,0.0596,0.0589,0.0654,0.0653,0.0653,0.0652,0,-0.0242,-0.0253,-0.0311,-0.0347,-0.0364,-0.04,-0.0422,-0.042,-0.0349,-0.0301,-0.0269,-0.0083,0.0081,0.0251,0.0438,0.0496,0.0613,0.0637,0.0602,0.0608,0.0588,0.058,0.0661,0.066,0.0659,0.0659,0.0658,0,-0.0261,-0.0289,-0.0363,-0.0409,-0.0436,-0.0483,-0.0508,-0.0478,-0.0468,-0.0347,-0.0321,-0.0142,-0.0007,0.0239,0.0404,0.0591,0.0609,0.0645,0.0638,0.0591,0.0594,0.0587,0.0579,0.0657,0.0657,0.0657,0.0657,0,-0.031,-0.0332,-0.0384,-0.0471,-0.0529,-0.0587,-0.0618,-0.0621,-0.056,-0.05,-0.0342,-0.0177,0.0013,0.0234,0.038,0.051,0.0614,0.0638,0.064,0.0634,0.0587,0.0589,0.0583,0.0654,0.0654,0.0655,0.0655,0,-0.035,-0.0399,-0.046,-0.0535,-0.061,-0.0662,-0.0678,-0.0646,-0.0621,-0.0478,-0.0425,-0.0187,-0.0029,0.019,0.0322,0.0453,0.0478,0.049,0.0501,0.0505,0.0439,0.0356,0.0369,0,0,0,0,0,-0.0386,-0.0439,-0.0519,-0.0604,-0.0673,-0.0704,-0.0733,-0.0725,-0.0664,-0.0564,-0.049,-0.0303,-0.0041,0.0098,0.0221,0.0274,0.0467,0.0414,0.0476,0.064,0.0643,0.0588,0,0,0,0,0,0,-0.0415,-0.0489,-0.0526,-0.0631,-0.0688,-0.0758,-0.0772,-0.0736,-0.0664,-0.0569,-0.0409,-0.0306,-0.0036,-0.0097,0.0223,0.0265,0.0307,0.0555,0.0555,0.0639,0.0641,0.0644,0.0588,0,0,0,0,0]}]]